Retour au catalogue

THORAD AGENA D DEB

ActifPO
NORAD 4716·DEBRIS·🇺🇸 United States

Lancé Apr 8, 1970 depuis Vandenberg Space Force Base

Loading…

Prochains Passages (prochaines 24 heures)

TLE

FraisSource: Space-Track

Époque: Sep 14, 2026, 09:40 UTC

1 04716U 70025CA  26257.40313913  .00001338  00000-0  83232-3 0  9994
2 04716  99.9782  58.7498 0005365  83.6258 306.4940 14.07049345838053

Suivez THORAD AGENA D DEB en temps réel avec AllMySat

Download on the App Store